    Orbital elements:
    2019 SW5                                                 Earth MOID = 0.0048 AU
    Epoch 2019 Apr. 27.0 TT = JDT 2458600.5                 Bell
    M 313.11110              (2000.0)            P               Q
    n   0.42136099     Peri.  302.58406     +0.58976652     +0.80742814
    a   1.7621106      Node     3.66800     -0.63702182     +0.47680308
    e   0.5163157      Incl.   13.87177     -0.49636545     +0.34744586
    P   2.34           H   25.3           G   0.15           U   6
    Residuals in seconds of arc
    190927 T08  0.4+  0.5-    190927 L29  0.5-  0.7+    190928 X31  0.1+  0.9-
    190927 T08  0.5+  0.0     190927 L29  0.7-  0.8+    190928 X31  0.1+  0.1+
    190927 T08  0.5+  0.4-    190927 L01  0.1+  0.0     190928 X31  0.1-  0.7-
    190927 L04  0.1-  0.6+    190927 L01  0.0   0.2-    190928 850  0.0   0.1+
    190927 L04  0.0   0.2+    190927 L01  0.0   0.1-    190928 H21  0.1+  0.2-
    190927 L04  0.1-  0.4+    190927 L01  0.1-  0.2-    190928 H21  0.1+  0.3-
    190927 L04  0.4-  0.6+    190927 L01  0.0   0.2-    190928 H21  0.2+  0.3-
    190927 K96  0.1+  0.2-    190927 L01  0.1+  0.2-    190928 H21  0.1+  0.3-
    190927 K96  0.1-  0.4+    190927 L01  0.1+  0.2-    190928 H21  0.2+  0.2-
    190927 K96  0.0   0.3+    190927 L01  0.1+  0.2-    190928 H21  0.1+  0.3-
    190927 J95  0.1+  0.2-    190927 J69  0.1+  0.0     190928 850  0.1-  0.1+
    190927 J95  0.0   0.1-    190927 J69  0.3+  0.2-    190928 850  0.0   0.2-
    190927 J95  0.1-  0.2-    190927 J69  0.3+  0.3-    190928 850  0.2-  0.1+
    190927 J95  0.0   0.0     190927 J69  0.2+  0.2-    190928 850  0.1-  0.3+
    190927 Z99  0.2-  0.4+    190927 J69  0.1-  0.2-    190928 G96  0.2-  0.2+
    190927 K83  0.2-  0.6-    190927 Z80  0.3+  0.5-    190928 G96  0.0   0.1+
    190927 K83  0.3+  0.1+    190927 Z80  0.4+  0.1-    190928 G96  0.8+  1.3-
    190927 Z99  0.2-  0.2+    190927 Z80  0.3+  0.1-    190928 G96  0.3-  0.5+
    190927 K83  0.0   0.3-    190927 Z80  0.5+  0.1-    190928 G34  0.1+  0.2+
    190927 Z99  0.0   0.2+    190928 932  0.1+  0.0     190928 G34  0.0   0.2+
    190927 L29  0.8-  0.9+    190928 932  0.0   0.6-    190928 G34  0.0   0.2+
    190927 L29  0.4-  0.6+    190928 932  0.1+  0.6-    190928 G34  0.1-  0.4+
    190927 L29  0.6-  0.7+    190928 104  0.2-  1.4+
    190927 L29  0.4-  0.4+    190928 104  0.3-  1.2+
    
    Ephemeris:
    2019 SW5                 a,e,i = 1.76, 0.52, 14                  q = 0.8523
    Date    TT    R. A. (2000) Decl.     Delta      r    Elong.  Phase     V
    2019 08 29    11 54 18.2 -34 32 28   0.2431  0.8691    48.7   119.2    26.7
    ...
    2019 09 13    11 55 11.2 -38 32 08   0.1128  0.9275    43.3   131.9    26.3
    ...
    2019 09 21    11 45 30.4 -42 28 24   0.04512 0.9720    43.5   134.7    24.7
    ...
    2019 09 27    01 11 38.4 -00 24 05   0.0074961.0098   165.0    14.8    15.5
    2019 09 28    00 38 00.4 +19 47 45   0.01491 1.0164   161.1    18.6    17.2
    2019 09 29    00 25 49.8 +26 08 38   0.02303 1.0231   155.9    23.6    18.3
    ...
    2019 10 05    00 09 11.1 +33 34 59   0.07351 1.0645   149.9    28.1    21.0
    ...
    2019 10 13    00 06 21.3 +34 36 22   0.1427  1.1228   149.1    27.1    22.5
    ...
    2019 10 28    00 10 10.8 +33 43 44   0.2812  1.2374   146.2    26.5    24.2
    
    A. U. Tomatic                (C) Copyright 2019 MPC           M.P.E.C. 2019-S138
    


    Read MPEC 2019-S137 Read MPEC 2019-S139


    MPEC number:

    Enter an MPEC number in one of the following forms:

    • 1997-B01 (the full form)
    • J97B01 (the packed version of the full form)
    • B01 (the abbreviated form)